EHI
0 0 0 0 0 0 0 0 2 10 32 61 76 69 48 26 10 3 0 0 0 0 0 0 0 0 0 0 0 0 0 0 0 0 0 0 0 0 0 0 0 0 0
0 0 0 0 0 0 0 0 1 5 21 48 68 67 51 31 15 5 1 0 0 0 0 0 0 0 0 0 0 0 0 0 0 0 0 0 0 0 0 0 0 0 0
0 0 0 0 0 0 0 0 0 1 8 28 50 56 47 34 22 12 4 0 0 0 0 0 0 0 0 0 0 0 0 0 0 0 0 0 0 0 0 0 0 0 0
0 0 0 0 0 0 0 0 0 0 2 12 27 39 39 31 26 19 8 1 0 0 0 0 0 0 0 0 0 0 0 0 0 0 0 0 0 0 0 0 0 0 0
0 0 0 0 0 0 0 0 0 0 0 3 11 21 24 21 18 14 8 3 0 0 0 0 0 0 0 0 0 0 0 0 0 0 0 0 0 0 0 0 0 0 0
0 0 0 0 0 0 0 0 0 0 0 0 3 6 8 8 7 7 6 4 2 0 0 0 0 0 0 0 0 0 0 0 0 0 0 0 0 0 0 0 0 0 0
0 0 0 0 0 0 0 0 0 0 0 0 0 1 2 4 5 5 5 5 3 1 0 0 0 0 0 0 0 0 0 0 0 0 0 0 0 0 0 0 0 0 0
0 0 0 0 0 0 0 0 0 0 0 0 0 0 0 1 3 3 3 4 2 1 0 0 0 0 0 0 0 0 0 0 0 0 0 0 0 0 0 0 0 0 0
0 0 0 0 0 0 0 0 0 0 0 0 0 0 0 0 1 1 1 1 1 0 0 0 0 0 0 0 0 0 0 0 0 0 0 0 0 0 0 0 0 0 0
0 0 0 0 0 0 0 0 0 0 0 0 0 0 0 0 0 0 0 0 0 0 0 0 0 0 0 0 0 0 0 0 0 0 0 0 0 0 0 0 0 0 0
0 0 0 0 0 0 0 0 0 0 0 0 0 0 0 0 0 0 0 0 0 0 0 0 0 0 0 0 0 0 0 0 0 0 0 0 0 0 0 0 0 0 0
0 0 0 0 0 0 0 0 0 0 0 0 0 0 0 0 0 0 0 0 0 0 0 0 0 0 0 0 0 0 0 0 0 0 0 0 0 0 0 0 0 0 0
0 0 0 0 0 0 0 0 0 0 0 0 0 0 0 0 0 0 0 0 0 0 0 0 0 0 0 0 0 0 0 0 0 0 0 0 0 0 0 0 0 0 0
0 0 0 0 0 0 0 0 0 0 0 0 0 0 0 0 0 0 0 0 0 0 0 0 0 0 0 0 0 0 0 0 0 0 0 0 0 0 0 0 0 0 0
0 0 0 0 0 0 0 0 0 0 0 0 0 0 0 0 0 0 0 0 0 0 0 0 0 0 0 0 0 0 0 0 0 0 0 0 0 0 0 0 0 0 0
0 0 0 0 0 0 0 0 0 0 0 0 0 0 0 0 0 0 0 0 0 0 0 0 0 0 0 0 0 0 0 0 0 0 0 0 0 0 0 0 0 0 0
0 0 0 0 0 0 0 0 0 0 0 0 0 0 0 0 0 0 0 0 0 0 0 0 0 0 0 0 0 0 0 0 0 0 0 0 0 0 0 0 0 0 0
0 0 0 0 0 0 0 0 0 0 0 0 0 0 0 0 0 0 0 0 0 0 0 0 0 0 0 0 0 0 0 0 0 0 0 0 0 0 0 0 0 0 0
0 0 0 0 0 0 0 0 0 0 0 0 0 0 0 0 0 0 0 0 0 0 0 0 0 0 0 0 0 0 0 0 0 0 0 0 0 0 0 0 0 0 0
0 0 0 0 0 0 0 0 0 0 0 0 0 0 0 0 0 0 0 0 0 0 0 0 0 0 0 0 0 0 0 0 0 0 0 0 0 0 0 0 0 0 0
0 0 0 0 0 0 0 0 0 0 0 0 0 0 0 0 0 0 0 0 0 0 0 0 0 0 0 0 0 0 0 0 0 0 0 0 0 0 0 0 0 0 0
0 0 0 0 0 0 0 0 0 0 0 0 0 0 0 0 0 0 0 0 0 0 0 0 0 0 0 0 0 0 0 0 0 0 0 0 0 0 0 0 0 0 0
0 0 0 0 0 0 0 0 0 0 0 0 0 0 0 0 0 0 0 0 0 0 0 0 0 0 0 0 0 0 0 0 0 0 0 0 0 0 0 0 0 0 0
0 0 0 0 0 0 0 0 0 0 0 0 0 0 0 0 0 0 0 0 0 0 0 0 0 0 0 0 0 0 0 0 0 0 0 0 0 0 0 0 0 0 0
0 0 0 0 0 0 0 0 0 0 0 0 0 0 0 0 0 0 0 0 0 0 0 0 0 0 0 0 0 0 0 0 0 0 0 0 0 0 0 0 0 0 0
0 0 0 0 0 0 0 0 0 0 0 0 0 0 0 0 0 0 0 0 0 0 0 0 0 0 0 0 0 0 0 0 0 0 0 0 0 0 0 0 0 0 0
Wind_Speed
9 6 7 7 7 7 8 9 9 11 9 8 10 11 12 11 10 10 11 12 11 12 11 8 9 9 9 9 8 5 4 3 3 4 2 2 2 2 1 1 1 1 2
9 7 6 6 7 7 8 9 10 10 10 10 10 8 9 8 10 8 10 12 12 13 12 12 11 10 8 9 8 6 5 3 3 4 4 2 1 1 1 1 2 2 2
10 10 8 7 6 7 7 7 9 10 10 10 6 4 4 3 5 7 9 11 13 14 13 14 13 12 11 11 10 9 9 5 3 2 5 5 5 2 0 1 1 2 2
7 7 7 7 7 7 6 6 7 8 8 8 8 10 10 11 11 10 11 11 14 15 15 14 14 14 11 12 11 9 6 7 5 2 1 2 4 5 2 1 1 1 2
6 6 6 6 6 6 5 4 5 7 7 8 10 11 12 11 8 7 9 11 11 13 14 14 13 14 11 12 12 10 8 6 7 6 4 3 2 2 4 3 2 1 2
8 8 7 7 7 6 5 4 4 6 6 7 9 11 14 12 9 10 11 10 7 8 12 13 13 12 11 12 12 11 11 6 7 6 5 5 4 4 4 4 3 2 2
8 10 12 12 11 10 8 6 5 6 6 6 8 10 13 13 13 13 13 11 9 9 14 13 12 11 10 10 10 10 10 9 10 7 4 4 3 3 4 4 3 1 1
8 9 9 9 9 9 9 8 7 7 6 6 7 8 9 8 8 10 10 12 11 12 13 13 12 11 10 10 9 8 7 7 8 7 6 5 4 3 3 4 4 2 1
9 9 9 9 9 9 9 8 8 8 7 7 7 7 7 7 8 9 9 8 8 7 10 11 10 10 10 11 11 8 8 9 7 7 7 5 3 3 3 3 4 5 3
11 11 10 10 9 9 9 8 7 8 7 7 6 5 6 6 6 6 8 8 7 7 10 11 11 11 10 11 10 9 9 10 8 6 7 5 3 3 2 2 2 3 4
10 10 10 10 10 10 9 9 8 8 7 6 6 5 4 4 4 5 6 6 6 8 10 11 11 12 12 11 11 10 11 11 9 8 7 5 4 3 2 2 2 2 3
8 9 10 11 10 10 9 9 8 7 7 6 5 4 2 2 3 3 4 6 7 8 10 10 11 11 12 11 12 13 11 11 10 8 6 5 3 3 2 2 3 3 3
10 9 10 10 10 9 9 9 8 7 7 5 4 3 1 1 2 4 6 8 9 10 10 11 11 12 12 12 12 12 12 10 9 7 6 5 4 3 2 3 3 3 3
9 9 10 9 9 9 9 9 9 8 6 5 4 3 2 3 4 6 7 9 10 10 11 11 11 12 13 13 13 13 12 11 9 7 6 5 3 2 3 3 4 3 3
9 10 11 10 9 9 10 9 9 8 6 6 6 5 5 6 7 9 9 10 11 12 12 13 13 13 11 11 13 13 12 11 9 7 5 4 2 3 3 3 4 4 4
9 10 10 9 9 9 9 9 9 9 7 8 8 7 9 10 10 11 12 13 13 13 13 13 13 13 11 19 19 14 10 9 8 6 4 3 3 2 2 5 5 6 4
8 8 8 8 8 8 8 8 8 8 9 10 10 10 10 11 12 12 13 13 13 13 13 13 13 14 16 20 18 16 9 8 6 5 4 2 2 2 2 5 8 8 11
6 6 6 6 6 7 7 7 7 8 9 9 9 10 10 11 12 12 13 12 11 11 11 12 12 12 14 18 17 15 9 7 6 4 3 2 1 3 5 5 4 4 5
4 4 5 5 6 6 6 6 7 8 8 8 8 9 9 10 11 11 11 10 10 11 10 9 10 10 11 15 14 11 6 5 4 2 1 1 3 8 9 4 3 5 5
3 4 4 5 6 6 6 7 7 8 8 8 8 8 9 10 10 10 10 9 9 10 9 9 8 8 7 10 11 9 4 4 2 1 1 4 6 9 10 4 3 5 5
3 4 4 5 6 6 6 7 8 8 7 7 8 9 9 9 10 10 9 9 9 9 8 8 7 6 6 6 8 8 3 2 2 2 2 3 8 10 11 9 3 8 9
3 4 5 5 6 6 6 7 8 7 7 8 9 10 9 8 8 9 8 8 7 8 7 7 6 5 5 6 6 6 3 2 2 1 2 4 10 11 11 8 11 14 10
3 4 5 5 6 6 6 7 6 6 7 9 9 9 9 8 7 7 7 6 5 5 4 4 4 3 3 4 6 5 5 6 2 2 6 8 10 10 7 10 13 9 3
3 3 5 5 5 5 6 5 5 6 8 9 8 7 7 7 6 5 5 5 4 4 4 4 3 2 2 1 1 1 2 4 4 3 4 6 8 7 8 8 6 4 4
3 4 4 5 5 5 5 5 5 6 8 7 6 6 6 6 6 5 4 4 3 4 4 3 2 2 0 2 3 2 1 2 2 2 2 2 3 4 4 4 4 4 4
5 5 5 5 5 5 5 4 4 5 7 6 5 4 4 4 4 4 4 8 6 8 7 4 2 1 1 4 6 8 8 9 10 4 2 3 3 4 5 6 6 6 5
Wind_Direction
266 253 243 245 245 236 227 228 224 221 207 199 204 208 212 210 207 207 202 196 191 185 181 174 168 170 172 171 156 133 128 126 143 113 86 45 49 94 109 149 149 138 120
295 283 262 253 242 236 227 226 225 222 211 207 206 207 208 211 210 205 199 195 189 185 184 177 176 177 169 163 163 147 136 134 166 142 129 129 345 321 47 112 159 151 130
297 303 303 287 273 258 240 232 226 224 217 210 202 192 189 189 192 200 204 197 189 187 187 183 177 179 176 178 177 165 151 149 170 183 151 155 198 205 312 24 118 149 139
313 311 316 314 300 279 266 247 238 233 226 212 201 199 205 212 209 207 207 196 191 190 189 183 181 181 182 181 181 173 161 144 152 154 112 126 145 150 173 267 255 185 171
339 341 338 323 314 310 302 280 261 247 237 220 211 210 216 219 211 202 200 196 193 192 189 184 184 185 184 182 178 173 168 157 154 155 149 129 81 110 144 186 223 251 220
349 352 350 350 344 339 332 322 300 275 258 237 223 217 219 218 205 199 201 197 190 191 191 187 188 188 184 181 180 178 174 166 153 151 151 152 155 171 158 160 180 213 259
350 352 350 348 343 339 333 324 313 293 280 259 241 227 223 219 213 207 205 197 190 194 195 190 190 187 185 178 171 171 173 165 157 154 146 139 137 139 137 133 145 178 299
338 336 332 328 325 322 321 318 310 296 286 270 257 246 234 221 217 212 206 203 202 202 194 190 188 182 175 170 164 162 159 151 145 141 134 130 127 126 133 139 135 142 286
324 324 323 321 317 313 307 304 301 296 291 279 268 259 241 222 215 207 206 205 202 189 181 179 175 169 164 161 157 155 149 139 129 127 120 113 109 107 112 124 140 153 196
322 324 324 320 314 308 302 301 293 287 286 284 271 259 247 231 218 202 202 199 185 170 166 167 163 157 153 152 147 140 138 127 118 115 111 101 101 112 120 134 144 156 172
316 321 320 317 314 313 312 309 305 297 294 293 286 271 259 237 208 203 201 183 163 157 160 160 155 151 149 146 141 136 132 123 115 111 115 118 124 135 147 143 155 174 173
324 323 322 321 321 322 322 319 314 308 302 301 299 285 265 220 191 181 160 147 146 147 147 145 145 144 142 140 137 132 125 121 118 115 119 129 134 155 162 168 186 198 200
331 330 328 329 328 330 330 327 325 321 320 323 321 320 337 132 144 136 132 135 136 135 136 138 139 137 133 129 125 120 114 112 114 122 132 137 142 173 178 189 203 214 219
335 335 333 333 336 339 341 339 338 337 337 348 357 11 50 99 115 117 118 122 124 126 126 124 123 123 121 119 116 112 110 108 107 109 110 113 136 185 197 207 218 222 229
342 341 339 340 346 350 351 351 350 354 7 24 32 40 63 79 88 94 100 104 107 110 112 111 110 111 111 113 114 112 112 113 110 102 97 102 133 205 208 217 220 216 225
338 340 343 349 352 353 355 0 5 8 27 45 48 53 68 75 81 87 92 94 97 101 103 107 108 105 105 112 111 110 108 109 111 108 100 106 99 57 350 305 279 245 232
336 343 346 349 354 359 4 11 15 24 40 50 54 59 71 77 81 86 89 92 94 96 98 100 102 102 108 109 105 103 101 103 105 109 108 101 66 29 311 298 295 295 293
341 346 346 355 4 9 16 23 32 41 49 55 61 67 75 82 85 88 90 92 94 95 96 97 99 102 106 105 104 106 105 106 112 120 127 132 286 293 281 255 254 261 270
349 352 354 4 13 19 24 35 43 48 53 57 64 71 80 86 88 89 90 91 94 93 93 94 96 99 104 108 113 115 113 112 116 121 139 225 266 292 298 286 258 268 271
13 15 12 19 26 27 32 46 48 50 53 57 64 69 76 82 84 85 86 86 88 89 89 86 86 95 105 121 126 123 110 114 124 159 249 293 299 299 306 295 272 280 278
41 40 35 32 29 32 46 53 50 47 50 60 67 70 72 76 80 81 80 84 87 87 88 88 80 74 80 98 112 127 120 140 169 213 245 272 306 310 312 321 320 297 304
61 55 52 42 35 41 56 62 53 50 60 66 67 65 66 70 75 81 80 82 92 95 94 91 77 54 46 61 72 81 79 77 167 250 262 275 304 321 331 333 315 314 326
85 73 73 62 47 45 59 70 59 63 72 73 70 70 69 66 69 79 84 79 77 87 88 86 82 63 43 36 47 40 18 356 338 272 305 319 332 343 343 324 324 337 340
104 94 89 80 65 56 63 69 73 77 81 78 72 69 71 67 59 62 70 78 80 85 90 93 92 73 40 360 324 309 308 317 320 318 339 353 352 345 331 330 332 321 301
123 112 108 103 94 82 73 70 79 91 89 82 77 72 71 73 68 67 73 86 87 116 115 115 127 128 218 295 347 8 307 311 315 23 52 360 344 339 329 322 315 310 313
134 126 122 119 112 102 90 82 89 100 102 94 82 78 78 77 78 78 70 78 89 89 100 134 153 219 306 358 7 354 354 355 350 15 1 341 333 324 321 318 316 312 305